TimeCDT,TemperatureF,Dew PointF,Humidity,Sea Level PressureIn,VisibilityMPH,Wind Direction,Wind SpeedMPH,Gust SpeedMPH,PrecipitationIn,Events,Conditions,WindDirDegrees,DateUTC
12:08 AM,73.4,69.8,88,29.99,10.0,South,10.4,-,N/A,,Mostly Cloudy,170,2013-05-17 05:08:00
12:13 AM,73.4,69.8,88,29.99,10.0,South,12.7,-,N/A,,Mostly Cloudy,170,2013-05-17 05:13:00
12:18 AM,73.4,69.8,88,29.98,10.0,South,16.1,-,N/A,,Mostly Cloudy,170,2013-05-17 05:18:00
12:38 AM,73.4,69.8,88,29.98,10.0,South,13.8,18.4,N/A,,Scattered Clouds,170,2013-05-17 05:38:00
12:58 AM,73.4,70.0,89,29.98,10.0,South,15.0,21.9,N/A,,Scattered Clouds,170,2013-05-17 05:58:00
1:43 AM,73.4,69.8,88,29.98,10.0,South,11.5,-,N/A,,Mostly Cloudy,170,2013-05-17 06:43:00
1:58 AM,73.6,70.2,89,29.98,10.0,South,10.4,-,N/A,,Mostly Cloudy,170,2013-05-17 06:58:00
2:18 AM,73.4,69.8,88,29.98,10.0,South,11.5,-,N/A,,Mostly Cloudy,170,2013-05-17 07:18:00
2:58 AM,73.4,69.8,88,29.98,10.0,South,9.2,-,N/A,,Mostly Cloudy,170,2013-05-17 07:58:00
3:58 AM,73.4,70.3,90,29.99,10.0,South,10.4,-,N/A,,Scattered Clouds,180,2013-05-17 08:58:00
4:58 AM,73.4,70.7,91,29.99,10.0,South,10.4,-,N/A,,Scattered Clouds,170,2013-05-17 09:58:00
5:58 AM,73.6,70.9,91,30.01,10.0,South,5.8,-,N/A,,Scattered Clouds,180,2013-05-17 10:58:00
6:28 AM,73.4,71.6,94,30.01,10.0,South,5.8,-,N/A,,Mostly Cloudy,180,2013-05-17 11:28:00
6:33 AM,73.4,71.6,94,30.01,10.0,South,8.1,-,N/A,,Mostly Cloudy,180,2013-05-17 11:33:00
6:43 AM,73.4,71.6,94,30.02,10.0,South,6.9,-,N/A,,Mostly Cloudy,180,2013-05-17 11:43:00
6:53 AM,73.4,71.6,94,30.02,10.0,South,8.1,-,N/A,,Mostly Cloudy,170,2013-05-17 11:53:00
6:58 AM,73.9,71.6,92,30.03,10.0,South,8.1,-,N/A,,Mostly Cloudy,170,2013-05-17 11:58:00
7:33 AM,75.2,71.6,89,30.02,10.0,South,9.2,-,N/A,,Mostly Cloudy,170,2013-05-17 12:33:00
7:58 AM,75.6,72.1,89,30.03,10.0,South,9.2,-,N/A,,Mostly Cloudy,170,2013-05-17 12:58:00
8:28 AM,75.2,71.6,89,30.03,10.0,South,11.5,-,N/A,,Mostly Cloudy,170,2013-05-17 13:28:00
8:33 AM,75.2,71.6,89,30.03,10.0,South,9.2,-,N/A,,Mostly Cloudy,170,2013-05-17 13:33:00
8:58 AM,77.0,72.3,85,30.05,10.0,South,12.7,-,N/A,,Mostly Cloudy,170,2013-05-17 13:58:00
9:03 AM,77.0,71.6,83,30.04,10.0,South,12.7,-,N/A,,Mostly Cloudy,170,2013-05-17 14:03:00
9:23 AM,77.0,73.4,89,30.04,10.0,South,11.5,-,N/A,,Mostly Cloudy,170,2013-05-17 14:23:00
9:58 AM,78.1,72.3,82,30.06,10.0,South,10.4,-,N/A,,Mostly Cloudy,180,2013-05-17 14:58:00
10:28 AM,78.8,71.6,78,30.05,10.0,South,10.4,-,N/A,,Scattered Clouds,170,2013-05-17 15:28:00
10:33 AM,78.8,73.4,83,30.05,10.0,South,10.4,-,N/A,,Mostly Cloudy,170,2013-05-17 15:33:00
10:43 AM,78.8,73.4,83,30.05,10.0,South,10.4,-,N/A,,Scattered Clouds,180,2013-05-17 15:43:00
10:58 AM,79.2,72.3,79,30.07,10.0,South,10.4,-,N/A,,Partly Cloudy,180,2013-05-17 15:58:00
11:38 AM,78.8,73.4,83,30.07,10.0,South,9.2,-,N/A,,Mostly Cloudy,170,2013-05-17 16:38:00
11:43 AM,80.6,73.4,79,30.07,10.0,South,9.2,-,N/A,,Scattered Clouds,180,2013-05-17 16:43:00
11:48 AM,78.8,73.4,83,30.07,10.0,SSE,9.2,-,N/A,,Mostly Cloudy,160,2013-05-17 16:48:00
11:58 AM,78.8,72.1,80,30.08,10.0,South,10.4,-,N/A,,Overcast,180,2013-05-17 16:58:00
12:23 PM,78.8,73.4,83,30.06,10.0,SSW,11.5,-,N/A,,Scattered Clouds,200,2013-05-17 17:23:00
12:33 PM,78.8,73.4,83,30.06,10.0,South,11.5,-,N/A,,Mostly Cloudy,180,2013-05-17 17:33:00
12:43 PM,80.6,73.4,79,30.06,10.0,South,10.4,-,N/A,,Mostly Cloudy,170,2013-05-17 17:43:00
12:48 PM,80.6,73.4,79,30.06,10.0,South,11.5,-,N/A,,Mostly Cloudy,180,2013-05-17 17:48:00
12:53 PM,80.6,73.4,79,30.06,10.0,South,10.4,-,N/A,,Mostly Cloudy,180,2013-05-17 17:53:00
12:58 PM,80.1,72.9,79,30.07,10.0,South,11.5,-,N/A,,Mostly Cloudy,170,2013-05-17 17:58:00
1:58 PM,80.4,73.0,78,30.06,10.0,South,10.4,-,N/A,,Partly Cloudy,170,2013-05-17 18:58:00
2:58 PM,79.7,72.7,79,30.05,10.0,SSE,9.2,-,N/A,,Scattered Clouds,160,2013-05-17 19:58:00
3:58 PM,80.4,72.5,77,30.03,10.0,South,10.4,-,N/A,,Clear,180,2013-05-17 20:58:00
4:58 PM,79.9,73.0,80,30.02,10.0,South,12.7,-,N/A,,Partly Cloudy,170,2013-05-17 21:58:00
5:38 PM,78.8,73.4,83,30.00,10.0,SSE,11.5,-,N/A,,Mostly Cloudy,160,2013-05-17 22:38:00
5:41 PM,78.8,73.4,83,30.00,10.0,South,11.5,-,N/A,,Scattered Clouds,170,2013-05-17 22:41:00
5:58 PM,78.4,72.9,83,30.01,10.0,SSE,11.5,-,N/A,,Scattered Clouds,160,2013-05-17 22:58:00
6:03 PM,77.0,73.4,89,30.00,10.0,South,12.7,-,N/A,,Overcast,170,2013-05-17 23:03:00
6:58 PM,76.8,72.5,86,30.01,10.0,South,10.4,-,N/A,,Mostly Cloudy,170,2013-05-17 23:58:00
7:58 PM,76.3,72.5,88,30.02,10.0,South,15.0,18.4,N/A,,Mostly Cloudy,170,2013-05-18 00:58:00
8:58 PM,76.1,72.7,89,30.03,10.0,South,12.7,-,N/A,,Mostly Cloudy,180,2013-05-18 01:58:00
9:03 PM,77.0,73.4,89,30.02,10.0,South,9.2,-,N/A,,Mostly Cloudy,170,2013-05-18 02:03:00
9:28 PM,75.2,73.4,94,30.02,10.0,South,10.4,-,N/A,,Scattered Clouds,170,2013-05-18 02:28:00
9:33 PM,75.2,73.4,94,30.02,10.0,South,10.4,-,N/A,,Mostly Cloudy,170,2013-05-18 02:33:00
9:43 PM,75.2,73.4,94,30.02,10.0,SSE,11.5,-,N/A,,Mostly Cloudy,160,2013-05-18 02:43:00
9:53 PM,75.2,73.4,94,30.03,10.0,South,12.7,-,N/A,,Mostly Cloudy,170,2013-05-18 02:53:00
9:58 PM,75.9,72.5,89,30.04,10.0,South,12.7,-,N/A,,Overcast,170,2013-05-18 02:58:00
10:58 PM,75.9,72.5,89,30.05,10.0,South,12.7,-,N/A,,Mostly Cloudy,180,2013-05-18 03:58:00
11:03 PM,75.2,73.4,94,30.04,10.0,South,12.7,-,N/A,,Mostly Cloudy,190,2013-05-18 04:03:00
11:18 PM,75.2,73.4,94,30.04,10.0,South,10.4,-,N/A,,Mostly Cloudy,180,2013-05-18 04:18:00
11:58 PM,75.9,72.1,88,30.06,10.0,SSW,11.5,-,N/A,,Mostly Cloudy,200,2013-05-18 04:58:00